Weather Roundup
Issued by NWS Chicago, IL

Home | Current Version | Previous Version | Graphics & Text | Print | Product List | Glossary On
Versions: 1 2 3 4 5 6 7 8 9 10 11 12 13 14 15 16 17 18 19 20 21 22 23 24 25 26 27 28 29 30 31 32 33 34 35 36 37 38 39 40 41 42 43 44 45 46 47 48 49 50
000
NZUS59 KLOT 310506
HRRLOT

CHICAGO AREA WEATHER ROUNDUP
NATIONAL WEATHER SERVICE CHICAGO/ROMEOVILLE IL
1200 AM CDT FRI OCT 31 2014

NOTE: "FAIR" INDICATES FEW OR NO CLOUDS BELOW 12,000 FEET WITH NO
SIGNIFICANT WEATHER AND/OR OBSTRUCTIONS TO VISIBILITY.

* THESE STATIONS ARE NOT UNDER NWS QUALITY CONTROL. THEY ALSO MAY NOT
  REPORT WEATHER SUCH AS PRECIPITATION OR FOG.

ILZ005-006-012>014-019>023-310600-
NORTHEAST ILLINOIS

CITY           SKY/WX    TMP DP  RH WIND       PRES   REMARKS
OHARE          CLOUDY    46  36  68 W7        30.03F
MIDWAY         CLOUDY    48  37  65 W9        30.04F
AURORA         CLOUDY    44  37  76 W6        30.06F
LANSING*       MOCLDY    44  37  75 W6        30.04F
JOLIET*        CLOUDY    45  37  73 W5        30.06S
WAUKEGAN       CLOUDY    46  36  68 W5        30.02F
DUPAGE AIRPORT CLOUDY    45  37  73 W6        30.04F
WHEELING       CLOUDY    48  35  60 W7        30.05F
KANKAKEE*      CLOUDY    42  38  88 W6        30.06F
MORRIS*        CLOUDY    45  39  81 W7        30.05F
LEWIS AIRPORT* CLOUDY    44  37  75 W5        30.05F
NORTHERLY IS     N/A     48  36  63 W3          N/A
$$

WIZ051-052-058>065-066-070>072-310600-
SOUTHEAST WISCONSIN

CITY           SKY/WX    TMP DP  RH WIND       PRES   REMARKS
MILWAUKEE      CLOUDY    47  37  68 NW9       30.02S
KENOSHA*       LGT RAIN  46  37  71 W9        30.02F
RACINE*        LGT RAIN  46  37  71 W7        30.03F
BURLINGTON     CLOUDY    44  36  74 NW10G16   30.02F
WAUKESHA       CLOUDY    41  34  75 NW14G20   30.03S
WEST BEND      CLOUDY    43  32  65 NW14G21   30.02S
$$

INZ001>003-010>013-019-020-310600-
NORTHWEST INDIANA

CITY           SKY/WX    TMP DP  RH WIND       PRES   REMARKS
GARY*          MOCLDY    46  37  70 W7        30.05S
MICHIGAN CITY* NOT AVBL
RENSSELAER*    NOT AVBL
VALPARAISO     MOCLDY    42  36  79 W7        30.04S
$$

LMZ740>746-310600-
SOUTHERN LAKE MICHIGAN

STATION/POSITION TIME  SKY/WX   TEMP WIND        PRES    VSBY
                                AIR  DIR/SP/G
                 (UTC)          (F)  (DEG/KT/KT) (MB)    (MI)
HARRISON CRIB    0400            49  270/ 11/ 13   N/A
BURNHAM HARBOR   0500            48  250/  5/  9   N/A
CALUMET HARBOR   0500            47  240/  6/  8 1016.0F
BURNS HARBOR     NOT AVBL
MICHIGAN CITY    0500            49  240/ 16/ 19   N/A
$$

ABBREVIATIONS USED IN REMARKS
   TC - TEMPERATURE IN CELSIUS
  WCI - WIND CHILL INDEX
   HX - HEAT INDEX
  VSB - VISIBILITY
$$



USA.gov is the U.S. government's official web portal to all federal, state and local government web resources and services.